Miscellaneous Local Product
Issued by NWS Hastings, NE

Home | Current Version | Previous Version | Text Only | Print | Product List | Glossary Off
Versions: 1 2 3 4 5 6 7 8 9 10 11 12 13 14 15 16 17 18 19 20 21 22 23 24 25 26 27 28 29 30 31 32 33 34 35 36 37 38 39 40 41 42 43 44 45 46 47 48 49 50

000
AXUS43 KGID 020102
MISGRI

GID CWA HOURLY WEATHER ROUNDUP
NATIONAL WEATHER SERVICE HASTINGS NE
800 PM CDT MON SEP 01 2014

NOTE: "FAIR" INDICATES FEW OR NO CLOUDS BELOW 12,000 FEET WITH NO
SIGNIFICANT WEATHER AND/OR OBSTRUCTIONS TO VISIBILITY.

...SOUTH CENTRAL NEBRASKA...

CITY           SKY/WX    TMP DP  RH WIND       PRES   REMARKS
GRAND ISLAND   PTCLDY    69  59  70 S6        29.89F
HASTINGS       PTCLDY    70  59  68 CALM      29.91S
KEARNEY        PTCLDY    64  59  82 S7        29.91F
ORD            CLEAR     69  58  67 S7        29.86F
YORK           PTCLDY    68 N/A N/A S3        29.90R
AURORA         PTCLDY    68  59  73 S3        29.90S
LEXINGTON      CLEAR     66  58  74 S5        29.92S
HOLDREGE       CLEAR     68  59  73 CALM      29.92S
HEBRON         MOCLDY    70  61  75 CALM      29.89S

...NEBRASKA PANHANDLE...

CITY           SKY/WX    TMP DP  RH WIND       PRES   REMARKS
CHADRON        LGT RAIN  62  51  67 NE8       29.95F
ALLIANCE       MOCLDY    62  48  60 NE9       29.99R THUNDER
SCOTTSBLUFF    LGT RAIN  68  48  48 N10       29.99R
SIDNEY         MOCLDY    72  41  32 N18G31    29.97R

...WESTERN AND NORTH CENTRAL NEBRASKA...

CITY           SKY/WX    TMP DP  RH WIND       PRES   REMARKS
VALENTINE      CLOUDY    59  55  87 NW8       29.95R
AINSWORTH      CLOUDY    58  54  87 NW3       29.97R
ONEILL         LGT RAIN  70  60  71 NE5       29.87S
BROKEN BOW     PTCLDY    69  56  62 S6        29.87F
IMPERIAL       CLEAR     73  52  47 SE7       29.91S
NORTH PLATTE   PTCLDY    66  56  70 E6        29.89F
MCCOOK         CLEAR     71  55  56 E8        29.91F

...EASTERN NEBRASKA...

CITY           SKY/WX    TMP DP  RH WIND       PRES   REMARKS
NORFOLK        CLEAR     69  61  75 S6        29.86S
SO SIOUX CITY  PTCLDY    73  67  81 CALM      29.85R
TEKAMAH        MOCLDY    71  67  87 CALM      29.86R
COLUMBUS       PTCLDY    66  61  82 S5        29.89R
ALBION         CLEAR     68  60  76 CALM      29.87F
OMAHA EPPLEY   CLOUDY    74  61  63 CALM      29.86S
OFFUTT AFB     CLOUDY    71  69  96 NW2       29.87R
MILLARD        CLOUDY    72  63  73 CALM      29.86R
LINCOLN        MOCLDY    72  65  78 W5        29.89R
NEBRASKA CITY  CLOUDY    71  61  70 SE6       29.85F
BEATRICE       CLOUDY    72  63  73 CALM      29.87F
FALLS CITY     MOCLDY    73  66  78 N5        29.86F

...NORTHERN KANSAS...

CITY           SKY/WX    TMP DP  RH WIND       PRES   REMARKS
GOODLAND       CLEAR     74  51  44 SE8       29.95R
HILL CITY      CLEAR     74  58  57 E5        29.91S
NORTON         CLEAR     73  52  46 E5        29.90F
PHILLIPSBURG   CLEAR     73  57  56 CALM      29.90S
SMITH CENTER   CLEAR     70  61  73 E5        29.90S
HAYS           CLEAR     75  63  64 E7        29.90S
RUSSELL        CLEAR     73  65  75 E7        29.87F
CONCORDIA      PTCLDY    71  63  75 N5        29.88F
SALINA         MOCLDY    77  67  71 NE6       29.86F
TOPEKA         LGT RAIN  75  72  90 N5        29.83F



USA.gov is the U.S. government's official web portal to all federal, state and local government web resources and services.